Showing default

QIANFAN-27, 61560

Orbit data source: Space-Track

QIANFAN-27, 61560 is a Chinese payload satellite in LEO that was launched on Tue, 15 Oct 2024 UTC via a CHANG ZHENG 6A launch vehicle from the Taiyaun Space Center, China (TSC). Payload-class satellites include a variety of spacecraft equipped with specific instruments for various scientific and technological missions. These include communications satellites like Starlink; space stations such as the ISS; scientific satellites like the Hubble; Earth observation satellites from companies like Planet Labs, Umbra, and HawkEye 360; GPS; miniature CubeSats for education and research; and military/defense satellites.

Loading next visibility...
Identifier
61560, 2024-185J
Orbit
LEO
Country
Flag of CNCN / PRC
Related business
Manufacturer
GESIH/SECM
Mission
Partially operational Commercial Communications
Bus & Motor
QIANFAN, Unknown motor
Mass
267 kg wet, ~267 kg dry
Launch date (UTC)
2024-10-15 (1 year ago)
Launch vehicle
CHANG ZHENG 6A
Launch site
Taiyaun Space Center, China (TSC)
Object type
Payload
Rocket body
Debris
Shape & HBR
Box + 1 Pan, 5.0 m
Radar Cross Section
13.200 m², Large (>1 m²)

Expand to show TLE details & history
Last TLE update: 17 hours ago

TLE from 17 hours ago
0 QIANFAN-27
1 61560U 24185J   25300.89812434  .00000869  00000-0  34965-3 0  9990
2 61560  88.9771  82.3114 0010032  83.1918 277.0417 14.27244556 63620
Epoch: 2025-10-27T21:33Z
TLE epoch observation values (Epoch: 2025-10-27T21:33:17.942Z)
Latitude
-0.00008°
Longitude
82.49327°
Altitude
803.143 km
Speed
7.452 km/s
True Right ascension
05h 29m 14s
True Declination
0° 00' 00"
Sunlit
Object was in full shadow at epoch
Visualization orbit readout
Latitude
Unknown
Longitude
Unknown
Altitude
Unknown
Speed
Unknown
Apparent Right ascension
Unknown
Apparent Declination
Unknown
Sunlit
N/A
Visualization observer readout
Local Sidereal Time
09:38:39
Azimuth
Unknown
Elevation
Unknown
Doppler factor
Unknown
Orbital elements
Apogee altitude
805.096 km
Perigee altitude
790.698 km
Semi-major axis
7,176.034 km
Eccentricity
0.001
Inclination
88.9771°
RAAN
82.3114°
Arg. of periapsis
83.1918°
True anomaly
276.92759°
Mean anomaly
277.0417°
Eccentric anomaly
276.98465°
Mean motion
3.5704 °/min
Orbital period
100.83 mins
BSTAR
0.00034965
Loading maneuver chart data...
Computing Atmospheric mass density...
Loading historical data...
Loading historical data...
Loading historical data...
Loading historical data...
Loading historical data...
Loading historical data...
Loading historical data...

Documentation

Showing up to 5 results
|